Probability
0 0 0 0 0 0 0 0 0 0 0 0 0 0 0 0 0 0 0 0 0 0 0 0 0 0 0 0 0 0 0 0 0 0 0 0 0 0 0 0 0 0 0 0
0 0 0 0 0 0 0 0 0 0 0 0 0 0 0 0 0 0 0 0 0 0 0 0 0 0 0 0 0 0 0 0 0 0 0 0 0 0 0 0 0 0 0 0
0 0 0 0 0 0 0 0 0 0 0 0 0 0 0 0 0 0 0 0 0 0 0 0 0 0 0 0 0 0 0 0 0 0 0 0 0 0 0 0 0 0 0 0
0 0 0 0 0 0 0 0 0 0 0 0 0 0 0 0 0 0 0 0 0 0 0 0 0 0 0 0 0 0 0 0 0 0 0 0 0 0 0 0 0 0 0 0
0 0 0 0 0 0 0 0 0 0 0 0 0 0 0 0 0 0 0 0 0 0 0 0 0 0 0 0 0 0 0 0 0 0 0 0 0 0 0 0 0 0 0 0
0 0 0 0 0 0 0 0 0 0 0 0 0 0 0 0 0 0 0 0 0 0 0 0 0 0 0 0 0 0 0 0 0 0 0 0 0 0 0 0 0 0 0 0
0 0 0 0 0 0 0 0 0 0 0 0 0 0 0 0 0 0 0 0 0 0 0 0 0 0 0 0 0 0 0 0 0 0 0 0 0 0 0 0 0 0 0 0
0 0 0 0 0 0 0 0 0 0 0 0 0 0 0 0 0 0 0 0 0 0 0 0 0 0 0 0 0 0 0 0 0 0 0 0 0 0 0 0 0 0 0 0
0 0 0 0 0 0 0 0 0 0 0 0 0 0 0 0 0 0 0 0 0 0 0 0 0 0 0 0 0 0 0 0 0 0 0 0 0 0 0 0 0 0 0 0
0 0 0 0 0 0 0 0 0 0 0 0 0 0 0 0 0 0 0 0 0 0 0 0 0 0 0 0 0 0 0 0 0 0 0 0 0 0 0 0 0 0 0 0
0 0 0 0 0 0 0 0 0 0 0 0 0 0 0 0 0 0 0 0 0 0 0 0 0 0 0 0 0 0 0 0 0 0 0 0 0 0 0 0 0 0 0 0
0 0 0 0 0 0 0 0 0 0 0 0 0 0 0 0 0 0 0 0 0 0 0 0 0 0 0 0 0 0 0 0 0 0 0 0 0 0 0 0 0 0 0 0
0 0 0 0 0 0 0 0 0 0 0 0 0 0 0 0 0 0 0 0 0 0 0 0 0 0 0 0 0 0 0 0 0 0 0 0 0 0 0 0 0 0 0 0
0 0 0 0 0 0 0 0 0 0 0 0 0 0 0 0 0 0 0 0 0 0 0 0 0 0 0 0 0 0 0 0 0 0 0 0 0 0 0 0 0 0 0 0
0 0 0 0 0 0 0 0 0 0 0 0 0 0 0 0 0 0 0 0 0 0 0 0 0 0 0 0 0 0 0 0 0 0 0 0 0 0 0 0 0 0 0 0
0 0 0 0 0 0 0 0 0 0 0 0 0 0 0 0 0 0 0 0 0 0 0 0 0 0 0 0 0 0 0 0 0 0 0 0 0 0 0 0 0 0 0 0
0 0 0 0 0 0 0 0 0 0 0 0 0 0 0 0 0 0 0 0 0 0 0 0 0 0 0 0 0 0 0 0 0 0 0 0 0 0 0 0 0 0 0 0
0 0 0 0 0 0 0 0 0 0 0 0 0 0 0 0 0 0 0 0 0 0 0 0 0 0 0 0 0 0 0 0 0 0 0 0 0 0 0 0 0 0 0 0
0 0 0 0 0 0 0 0 0 0 0 0 0 0 0 0 0 0 0 0 0 0 0 0 0 0 0 0 0 0 0 0 0 0 0 0 0 0 0 0 0 0 0 0
0 0 0 0 0 0 0 0 0 0 0 0 0 0 0 0 0 0 0 0 0 0 0 0 0 0 0 0 0 0 0 0 0 0 0 0 0 0 0 0 0 0 0 0
0 0 0 0 0 0 0 0 0 0 0 0 0 0 0 0 0 0 0 0 0 0 0 0 0 0 0 0 0 0 0 0 0 0 0 0 0 0 0 0 0 0 0 0
0 0 0 0 0 0 0 0 0 0 0 0 0 0 0 0 0 0 0 0 0 0 0 0 0 0 0 0 0 0 0 0 0 0 0 0 0 0 0 0 0 0 0 0
0 0 0 0 0 0 0 0 0 0 0 0 0 0 0 0 0 0 0 0 0 0 0 0 0 0 0 0 0 0 0 0 0 0 0 0 0 0 0 0 0 0 0 0
0 0 0 0 0 0 0 0 0 0 0 0 0 0 0 0 0 0 0 0 0 0 0 0 0 0 0 0 0 0 0 0 0 0 0 0 0 0 0 0 0 0 0 0
0 0 0 0 0 0 0 0 0 0 0 0 0 0 0 0 0 0 0 0 0 0 0 0 0 0 0 0 0 0 0 0 0 0 0 0 0 0 0 0 0 0 0 0
0 0 0 0 0 0 0 0 0 0 0 0 0 0 0 0 0 0 0 0 0 0 0 0 0 0 0 0 0 0 0 0 0 0 0 0 0 0 0 0 0 0 0 0
0 0 0 0 0 0 0 0 0 0 0 0 0 0 0 0 0 0 0 0 0 0 0 0 0 0 0 0 0 0 0 0 0 0 0 0 0 0 0 0 0 0 0 0
Wind_Speed
3 2 3 5 6 7 7 8 9 9 11 13 7 7 7 6 6 7 7 7 8 8 7 7 6 6 6 6 5 4 3 2 3 4 4 5 6 7 7 8 9 9 11 11
2 1 2 7 9 8 10 9 10 11 15 10 4 4 4 5 6 6 6 7 7 8 8 8 8 7 6 5 3 2 1 2 4 5 6 6 7 9 10 11 11 12 13 13
4 2 3 11 12 12 9 9 10 14 13 3 4 7 7 6 5 5 6 6 7 7 8 8 7 6 5 4 2 1 1 3 4 4 5 6 9 10 12 13 14 15 15 15
4 4 9 12 2 6 7 9 10 9 6 6 7 5 5 5 5 6 6 6 6 6 7 6 5 4 4 3 3 1 1 2 3 3 4 7 9 11 12 12 13 14 16 16
6 6 11 12 6 7 8 9 7 9 7 4 3 3 3 5 5 7 8 7 8 8 7 5 5 5 5 4 2 1 1 1 2 3 5 7 9 11 11 12 13 13 14 14
7 7 12 10 2 2 4 7 6 7 7 7 8 4 7 7 7 8 8 7 7 6 5 6 5 5 5 3 2 1 1 2 3 4 5 8 10 11 10 11 13 14 14 13
8 8 12 10 4 4 5 11 4 8 9 10 11 11 8 7 8 9 9 8 7 7 6 6 6 5 4 3 2 1 1 2 3 5 6 8 9 9 10 12 13 13 15 14
7 8 15 7 9 11 11 4 6 8 10 11 11 10 9 9 10 10 9 8 7 7 7 6 6 5 4 3 1 1 1 3 5 6 7 7 7 9 9 10 12 12 12 13
13 12 5 8 11 11 7 8 8 9 11 12 12 12 12 11 11 10 10 8 7 7 7 6 5 4 4 2 1 1 2 5 6 7 6 7 7 10 9 8 9 10 11 12
5 8 6 8 9 7 7 10 11 11 12 12 13 13 12 11 10 10 8 7 6 7 7 6 5 4 3 2 1 1 4 5 6 6 6 6 6 7 7 8 9 10 12 13
7 8 5 8 12 14 12 10 10 10 11 13 13 14 13 11 10 8 6 5 6 7 7 6 5 4 3 2 1 3 4 6 6 6 6 6 7 7 10 10 12 15 13 13
11 11 9 9 11 13 13 14 15 14 14 13 13 14 12 10 8 6 6 6 6 6 5 5 4 3 3 3 3 3 4 4 4 5 5 6 7 10 16 19 24 27 26 23
13 10 10 11 12 13 13 14 14 14 15 14 12 11 10 7 5 5 5 6 6 5 4 3 3 4 4 3 3 4 5 5 4 5 5 6 7 8 12 16 22 24 24 26
12 10 11 14 16 15 14 13 11 10 9 7 6 4 4 4 4 5 5 5 5 4 3 2 3 5 4 3 4 5 5 6 5 5 5 6 7 8 8 10 13 14 18 24
14 14 15 12 12 11 9 7 7 7 6 4 3 4 5 5 5 5 5 4 3 2 3 3 4 6 4 4 4 5 5 4 4 4 5 6 7 8 8 9 10 11 12 15
13 10 10 11 13 11 8 8 9 9 7 6 5 5 4 5 5 4 3 2 1 3 4 4 6 5 4 4 4 4 5 7 5 4 4 5 6 6 7 8 9 9 10 11
11 12 11 10 12 11 9 9 8 6 5 6 6 7 6 6 3 1 1 1 3 4 5 6 7 5 5 5 5 4 4 4 5 4 4 5 5 5 6 7 8 9 9 12
13 13 10 9 8 8 6 4 5 5 5 6 8 7 5 4 2 2 2 2 3 6 7 7 7 6 5 5 4 4 4 3 3 4 4 4 4 5 5 6 7 9 9 11
8 7 4 3 3 5 6 6 7 7 7 7 6 5 3 2 2 2 2 3 4 7 6 5 6 2 3 5 5 4 3 3 4 4 4 5 5 4 5 5 6 7 8 8
6 7 7 7 6 6 8 8 8 7 6 5 5 4 2 2 2 2 2 4 6 7 6 5 5 5 5 5 4 3 3 3 3 3 3 3 4 4 5 5 5 6 6 6
9 9 9 9 8 8 7 7 7 6 5 4 4 3 2 3 3 3 3 5 6 6 6 7 5 4 4 4 4 3 3 3 3 3 3 4 4 4 5 5 5 5 5 6
8 8 9 9 9 7 5 5 5 5 4 3 2 2 2 4 4 4 6 6 6 6 5 4 4 5 6 5 3 3 3 3 3 3 3 4 4 4 5 5 5 5 5 6
7 7 8 8 7 7 5 3 3 4 3 3 3 4 4 4 3 3 4 4 4 6 4 4 6 8 7 3 2 3 3 4 4 4 4 4 4 4 5 5 5 5 6 6
7 7 7 6 6 6 5 3 3 2 2 2 3 4 4 3 3 4 5 5 6 7 4 5 8 7 1 2 2 3 4 4 4 4 4 4 4 4 4 5 5 5 6 7
7 7 6 6 5 4 4 3 3 1 1 1 2 3 3 3 3 3 4 4 6 6 3 5 7 5 1 2 3 4 4 4 4 4 4 4 5 5 5 5 5 5 6 6
5 5 4 3 3 3 3 3 2 1 1 1 2 2 2 2 3 3 3 4 5 5 4 3 3 4 3 4 4 4 4 5 5 5 5 5 5 6 5 5 7 6 6 6
6 4 3 3 2 2 2 2 2 1 1 2 2 3 3 3 3 3 4 4 4 4 3 3 3 4 4 4 4 5 5 5 5 5 5 5 5 5 6 7 6 6 6 7
Wind_Direction
219 156 178 215 211 185 196 202 215 236 240 252 238 226 226 219 195 178 181 185 190 195 202 208 212 215 213 213 209 203 212 256 291 310 318 322 322 319 315 310 307 302 300 297
249 339 231 262 248 212 222 224 231 247 261 264 249 185 187 187 175 179 190 197 202 203 208 216 222 224 219 215 212 193 245 311 330 334 335 336 333 330 323 317 313 309 305 302
226 4 29 263 236 219 214 207 202 230 244 237 203 194 188 185 184 195 205 205 202 204 212 221 223 214 201 198 160 111 0 336 338 344 346 343 334 325 318 314 310 306 304 303
134 98 230 242 185 213 226 239 221 228 243 217 213 195 185 187 200 219 215 207 208 213 221 222 205 176 155 134 121 103 356 339 3 10 345 328 320 312 309 307 305 304 305 304
151 204 264 284 246 197 200 252 224 215 225 205 159 122 260 236 211 207 208 208 215 219 215 191 167 152 140 131 117 99 350 22 29 355 323 314 307 304 304 303 301 298 296 297
157 181 227 243 187 161 108 272 242 190 194 177 148 184 242 229 211 211 215 219 220 210 183 164 154 140 140 145 153 182 81 7 344 322 305 299 298 299 298 296 295 297 296 296
186 208 248 247 196 116 171 240 220 184 191 182 189 209 215 208 216 222 227 227 212 187 175 164 147 140 149 160 180 129 69 329 308 299 291 288 287 289 292 293 294 293 293 291
170 202 244 207 155 187 214 201 185 197 201 199 211 222 222 221 227 232 233 221 192 175 164 145 139 141 159 182 146 88 324 299 290 283 282 285 280 286 286 288 292 291 291 291
190 211 230 169 193 210 192 193 203 203 209 208 217 227 230 232 233 233 227 210 184 169 155 145 140 146 177 185 168 284 299 287 279 274 267 272 278 289 291 287 289 293 294 293
220 251 237 224 233 233 204 210 213 207 209 209 220 231 235 235 235 231 221 195 166 157 162 168 162 159 176 204 199 259 279 280 278 278 280 277 278 285 287 289 289 289 288 288
220 241 244 240 232 237 234 229 232 228 222 222 226 234 234 234 233 225 206 170 158 165 169 170 164 176 198 216 223 255 268 271 280 281 280 285 283 278 284 275 276 288 290 293
221 218 210 228 230 231 233 234 232 233 238 234 225 232 231 228 225 206 179 157 154 156 159 162 174 212 228 233 229 244 268 277 283 288 286 289 294 296 294 297 300 301 303 304
231 230 223 236 244 242 237 237 233 229 232 236 229 223 223 217 191 160 149 150 156 155 156 171 208 242 246 243 236 238 254 270 278 286 290 292 294 298 303 308 308 309 312 315
232 235 245 247 248 251 246 242 237 234 232 231 223 198 180 161 141 147 149 139 131 138 174 211 238 253 252 244 240 248 256 263 267 268 277 284 288 291 292 299 307 310 316 320
235 224 230 241 247 248 245 237 229 226 211 189 153 151 151 153 153 141 121 114 119 182 230 234 246 257 254 242 240 249 260 260 259 264 272 280 288 292 293 294 296 301 309 319
240 236 231 239 246 247 236 224 223 225 198 177 159 146 128 117 116 115 115 123 191 245 250 249 252 254 248 240 242 249 254 267 274 274 282 286 289 292 297 299 302 305 311 317
232 244 236 233 239 239 228 220 217 205 168 158 147 128 117 111 114 150 250 253 245 256 257 253 255 256 250 238 235 242 249 263 275 278 273 277 283 288 294 298 301 305 308 314
219 231 229 224 228 224 210 173 143 127 121 121 117 119 127 145 190 232 262 292 292 283 266 250 245 245 240 235 233 235 240 252 260 266 270 276 280 284 288 292 296 303 311 318
202 198 174 149 156 148 133 122 114 107 105 112 120 128 138 164 202 243 271 280 279 279 274 262 263 239 240 251 239 217 233 252 263 267 272 281 286 283 284 286 293 301 309 317
139 126 118 103 87 102 113 114 112 109 108 114 120 127 162 236 249 259 259 257 247 246 258 266 269 264 256 258 260 226 233 245 259 272 279 283 287 289 288 292 297 301 305 311
140 132 127 117 102 97 107 118 122 125 124 126 140 168 218 257 257 245 247 270 265 252 254 255 245 244 243 239 238 225 229 239 250 261 272 279 285 288 289 293 296 299 303 309
137 132 129 125 122 115 108 109 118 126 131 141 163 190 227 259 262 250 237 242 261 271 262 250 248 250 248 237 217 222 232 239 245 250 258 265 273 281 288 294 296 299 300 301
122 122 124 126 127 125 119 120 134 143 157 179 199 213 226 241 240 246 274 260 259 269 262 248 263 266 248 207 208 228 238 244 247 250 254 259 263 269 277 286 288 292 296 300
115 114 111 108 112 121 130 146 158 172 194 223 234 233 230 247 262 243 244 270 278 284 277 268 277 284 185 175 225 237 242 247 250 253 256 259 261 265 270 277 284 288 289 294
115 114 119 129 133 139 143 144 141 151 188 253 278 266 234 219 235 262 269 275 284 291 281 286 294 309 308 245 245 246 247 246 248 249 250 256 261 265 268 270 274 280 285 287
120 126 131 131 128 134 137 136 136 145 155 292 301 294 290 278 272 276 279 283 284 286 280 273 279 284 268 259 255 255 255 258 260 256 251 255 259 261 264 267 273 273 277 280
111 113 119 115 117 134 134 139 155 187 207 224 266 279 283 290 292 292 293 292 290 286 281 276 274 272 270 267 265 263 261 259 257 256 255 254 255 257 262 266 267 270 274 275